Wind_Speed
14 13 14 14 14 15 15 15 14 14 15 16 15 12 11 12 11 10 11 12 13 14 15 14 13 12 12 12 13 13 12 11 10 9 9 8 6 6 4 3 4 4 2 2 2 2 2 3 3 3 5 6 6 6 5 5 7 8 10 10 8 7 7 8 12 16 16 15 16 16 15 15 15 14 14 16 15 15 15 16 16 16 15 15 15
12 12 13 15 15 15 15 15 15 16 16 16 16 15 13 12 12 12 14 13 12 14 16 15 15 15 15 15 15 15 15 14 14 12 12 12 10 10 9 6 6 6 5 5 6 4 2 2 4 5 5 6 6 6 5 2 3 3 3 5 5 6 8 10 12 16 18 18 18 18 17 16 16 16 16 17 17 16 17 17 17 16 15 14 14
15 14 14 16 17 18 18 18 18 19 18 17 16 16 16 15 15 16 16 15 14 14 15 15 16 17 18 17 17 17 17 17 17 16 15 14 14 13 12 10 9 9 9 8 8 8 6 4 5 7 7 7 8 8 7 5 4 4 4 5 7 8 9 11 13 15 19 20 19 19 18 18 19 20 19 18 18 17 17 17 18 18 18 17 16
19 17 14 12 13 16 19 20 21 21 20 20 19 18 19 17 16 17 17 17 18 18 16 16 18 19 19 19 19 19 19 19 18 19 17 16 16 16 15 13 12 12 12 10 8 9 10 8 8 9 9 9 9 9 8 8 7 7 8 8 8 8 9 10 12 14 17 19 20 20 20 20 21 20 19 18 18 17 17 16 16 17 18 18 18
17 16 14 12 12 12 13 14 17 19 21 22 21 20 19 16 16 18 19 19 18 19 20 20 20 20 21 22 22 21 21 20 19 20 19 17 18 18 17 16 14 14 14 12 11 11 12 11 9 10 10 10 10 10 9 9 10 11 11 12 11 11 11 13 14 15 17 19 21 20 20 21 21 19 18 18 18 17 17 17 17 17 18 18 19
12 11 10 11 11 10 9 10 11 14 16 17 17 19 20 21 22 24 25 25 22 21 24 25 22 22 22 23 24 24 23 22 20 20 19 18 18 20 20 18 17 16 15 14 14 14 13 12 11 11 11 11 12 12 11 12 12 13 14 15 15 15 15 15 16 16 17 19 20 21 20 20 20 19 18 17 17 18 18 19 19 19 20 20 19
8 8 8 8 9 9 8 9 9 9 10 12 14 16 19 22 24 25 27 29 26 23 25 28 26 24 24 24 25 25 25 23 21 21 21 20 20 21 21 20 19 18 17 17 17 16 15 14 13 13 12 12 13 13 13 13 14 15 15 16 17 17 17 17 17 17 18 19 19 20 20 19 19 20 19 17 17 18 19 19 19 18 17 17 17
9 8 8 8 7 6 5 6 5 4 4 5 7 9 12 15 16 18 21 23 24 23 23 25 25 24 25 27 28 28 27 26 24 23 23 22 23 24 23 22 22 20 19 19 18 17 16 15 14 14 14 14 14 14 14 15 15 16 17 17 18 18 18 18 18 18 18 19 19 20 20 19 19 19 19 17 17 17 17 18 19 20 20 20 21
9 8 7 6 6 5 3 1 1 1 1 0 2 4 6 7 8 10 13 15 18 20 21 22 23 22 24 26 28 30 30 29 28 26 24 25 26 27 25 23 23 21 21 20 18 18 17 16 15 15 15 15 14 15 15 16 17 17 18 19 20 19 19 18 18 19 20 20 21 21 21 21 21 20 19 18 19 20 20 21 23 25 26 26 26
8 7 5 3 3 3 1 0 1 0 0 1 2 3 4 5 6 7 9 11 13 15 16 19 21 22 23 25 27 31 32 31 30 29 27 26 28 29 26 25 24 22 21 20 19 19 18 17 16 16 16 15 15 16 17 17 18 18 20 20 20 19 19 19 19 20 21 22 23 23 23 24 23 22 21 21 21 22 23 23 24 25 26 27 28
5 6 4 2 2 2 1 1 1 1 2 2 3 4 4 5 6 7 8 10 11 12 14 15 17 19 22 24 26 28 30 30 30 29 27 27 30 32 30 26 24 22 22 21 20 19 18 16 17 17 17 16 17 18 18 18 19 20 21 22 22 21 22 22 23 23 23 24 24 24 24 26 26 24 23 22 20 20 21 22 23 23 22 23 25
4 4 3 2 2 1 2 2 1 2 3 4 4 5 5 6 7 7 8 10 10 12 13 15 16 18 20 22 23 24 26 28 28 27 27 27 30 34 32 28 24 22 22 20 19 18 17 16 17 18 18 18 19 19 20 20 20 21 22 23 23 23 24 24 25 26 26 26 27 26 26 26 26 26 25 25 25 26 26 26 26 26 26 26 27
3 3 2 2 2 2 3 2 3 3 4 4 5 6 7 6 7 8 9 10 11 12 14 15 17 18 19 20 21 22 23 25 26 26 27 28 30 33 32 29 25 23 22 20 19 17 17 17 16 17 18 19 19 19 19 19 19 21 22 23 24 25 25 25 26 27 28 28 29 30 29 27 27 27 26 26 28 30 31 31 32 32 33 33 32
3 3 2 2 2 2 3 3 4 5 6 6 6 7 7 7 8 9 9 10 11 13 15 16 17 18 19 19 20 21 22 22 22 24 28 30 31 32 31 28 25 23 21 20 20 19 18 18 17 17 18 18 19 18 17 17 18 21 22 24 26 26 26 26 26 27 27 28 29 31 30 29 29 29 27 24 26 28 30 31 32 34 35 36 37
4 3 3 3 2 3 3 4 5 6 7 6 7 7 8 8 9 9 10 11 12 13 14 16 16 17 18 19 19 21 22 21 19 22 26 28 30 30 30 28 25 22 21 21 21 21 21 20 20 19 19 19 20 19 18 19 21 23 25 26 27 27 27 27 27 27 27 27 29 31 31 31 31 31 28 25 25 27 28 29 31 33 36 38 39
5 4 5 4 4 4 4 5 6 7 7 7 7 7 8 9 9 10 11 12 13 14 14 15 16 16 17 18 19 21 22 21 20 21 23 26 27 27 27 28 27 24 23 23 23 22 21 20 20 20 20 21 21 20 20 22 24 26 27 28 29 29 29 29 28 28 27 27 28 29 30 30 30 31 30 29 30 31 32 34 36 36 39 42 44
6 6 6 6 5 5 6 7 8 8 8 8 8 8 9 10 11 11 12 13 14 14 14 15 16 17 17 17 20 21 21 21 21 22 23 25 26 25 25 28 29 27 25 23 22 20 19 18 19 20 19 19 20 21 23 25 26 27 28 29 31 32 33 32 31 30 28 28 28 28 29 29 30 32 31 30 29 29 33 37 38 37 39 41 43
8 8 7 7 7 7 7 8 9 9 10 11 11 12 12 13 13 13 13 14 14 15 15 15 15 16 17 19 21 22 21 21 22 23 23 24 25 25 25 27 29 28 25 22 19 18 16 15 16 17 18 20 22 23 25 26 27 28 29 31 33 34 35 34 34 33 32 31 31 31 31 31 32 32 33 32 30 28 31 36 36 34 36 37 38
10 10 10 10 9 9 9 10 11 12 12 13 13 13 13 13 14 14 14 14 15 15 15 15 15 17 19 22 23 22 21 21 22 22 22 23 24 25 25 26 26 24 21 17 14 12 11 12 14 16 19 22 23 24 25 26 27 28 30 33 35 36 36 36 36 37 37 37 37 36 36 36 35 34 34 34 33 32 32 34 32 32 34 36 35
13 13 13 13 12 12 12 12 12 13 13 13 13 13 13 14 14 14 15 15 15 15 15 15 17 20 22 23 23 21 20 20 20 21 22 22 22 23 24 23 21 18 17 15 14 13 12 14 17 19 20 22 23 24 26 27 29 31 32 34 36 37 38 38 39 39 40 41 41 40 39 39 38 37 36 35 36 35 35 35 35 34 34 35 34
14 15 15 15 15 14 14 13 14 14 14 15 15 16 16 16 16 16 16 15 15 17 18 19 21 22 22 23 22 20 18 17 18 19 21 22 22 24 24 23 20 19 18 17 17 17 16 16 18 19 19 22 24 25 28 30 31 33 34 35 37 38 39 40 40 39 40 40 39 38 37 36 35 35 33 32 31 31 31 32 33 32 32 32 32
16 16 17 17 17 16 16 16 16 16 17 18 19 19 19 18 17 16 15 15 16 19 21 22 23 24 23 22 21 19 16 16 17 19 21 23 23 24 24 22 20 19 18 17 17 17 16 16 18 20 21 24 26 27 29 31 32 34 35 35 35 35 35 35 35 34 34 34 33 32 31 31 30 28 27 26 25 23 22 22 24 26 28 29 30
18 18 18 19 18 18 18 18 18 19 19 20 20 20 19 17 16 15 15 15 17 19 21 21 22 22 22 21 20 17 16 17 18 19 21 22 23 22 22 20 18 17 16 16 16 16 15 14 18 22 23 24 26 27 29 31 31 31 31 29 28 28 27 27 27 28 29 28 27 27 27 26 26 25 24 23 22 20 19 20 21 23 25 27 28
20 20 21 21 21 21 20 20 20 19 19 19 19 19 18 16 15 15 15 17 17 17 19 19 19 19 20 20 18 17 17 18 18 19 20 20 20 18 17 15 14 14 15 15 15 15 14 15 19 22 23 23 25 26 27 27 26 25 24 23 23 22 22 22 22 23 23 23 24 25 25 24 24 24 24 24 22 20 19 20 22 23 24 26 27
22 22 22 22 22 21 21 20 19 19 18 18 17 17 17 16 16 16 17 18 17 16 16 17 18 18 19 20 19 19 18 18 19 20 19 17 15 13 12 12 12 12 13 13 14 15 17 18 20 20 21 22 23 22 22 21 21 21 21 20 20 19 19 20 20 20 21 22 23 25 25 25 25 26 26 25 24 23 22 22 23 23 24 26 28
23 23 22 22 21 21 20 20 19 18 17 17 17 17 16 17 18 18 18 16 15 15 15 16 17 18 18 19 20 19 19 20 19 17 14 12 10 10 9 9 9 10 11 13 15 16 17 18 18 19 20 20 18 18 19 19 19 20 20 18 17 18 19 19 20 21 22 23 25 26 26 27 27 27 26 26 26 26 26 26 27 26 26 26 28
24 23 23 22 21 21 21 20 19 19 18 18 17 16 17 19 20 19 18 17 16 16 16 17 17 17 17 18 19 20 20 19 15 12 11 10 10 9 9 8 9 10 11 12 13 14 15 17 18 18 17 15 15 16 18 18 18 19 19 17 16 17 18 19 20 22 23 25 26 26 26 26 27 27 27 27 27 27 26 27 28 29 28 28 28
25 24 23 23 23 22 21 21 20 20 20 19 18 18 19 20 18 16 17 18 18 17 17 17 16 16 18 20 20 20 19 15 13 12 10 9 9 7 6 6 8 9 10 12 12 14 15 16 14 12 11 12 14 15 16 16 17 18 19 18 17 18 18 19 20 21 22 24 25 26 27 27 27 28 28 29 30 30 29 29 29 30 30 30 31
27 26 25 25 25 24 23 23 21 19 19 20 20 20 21 20 17 15 17 18 15 14 16 17 16 17 19 20 20 20 18 14 12 10 8 7 7 6 6 6 7 9 11 13 13 14 13 11 9 10 11 13 16 17 17 17 18 19 19 19 20 21 21 21 21 22 23 25 26 28 29 30 31 31 32 33 33 32 31 31 32 31 31 30 31
27 27 26 26 26 25 24 24 22 21 22 22 21 21 21 21 19 18 17 14 10 11 14 17 19 20 20 19 18 16 14 12 11 9 7 7 7 6 5 6 6 7 8 10 11 11 8 6 9 12 14 16 17 17 18 18 19 20 20 21 22 23 23 23 23 25 26 27 28 30 31 32 33 34 35 35 35 34 32 31 30 30 31 31 32
27 27 26 25 25 23 23 23 22 22 23 23 21 20 20 19 16 13 12 9 10 14 16 17 18 19 19 18 16 14 12 12 11 9 7 5 3 3 4 5 5 5 8 12 12 9 7 10 11 14 16 17 17 17 18 20 21 22 23 23 23 24 24 25 26 27 28 29 29 30 31 33 34 34 34 35 35 35 34 33 32 31 30 31 33
26 26 25 24 24 23 22 22 21 20 22 21 19 18 18 16 12 8 7 9 14 18 17 17 17 17 16 16 15 15 14 12 9 7 4 2 2 2 2 3 5 7 12 17 16 11 10 12 15 17 17 17 17 18 20 22 23 24 25 25 25 25 26 27 28 29 30 30 30 30 30 31 31 32 32 32 32 33 33 33 32 32 31 30 31
26 27 26 25 23 23 23 22 20 20 21 20 17 16 16 16 14 15 17 18 18 18 17 16 16 17 17 16 15 13 12 9 7 4 2 1 1 3 6 8 10 11 13 17 17 13 11 14 18 18 17 17 18 20 22 23 24 25 25 25 26 28 28 28 29 29 30 30 30 30 29 29 29 30 31 31 31 32 32 32 31 31 32 32 32
27 28 27 24 22 22 24 24 22 21 20 19 16 15 15 16 19 22 25 25 23 21 20 19 18 17 17 15 13 11 10 8 6 5 6 6 7 8 10 11 11 11 12 15 15 13 11 16 18 17 16 17 18 20 21 22 23 24 25 26 28 28 27 27 28 29 29 29 30 30 30 30 30 30 30 30 30 31 31 31 31 31 31 33 33
29 28 26 24 24 24 24 25 25 24 21 18 16 16 20 24 27 29 30 29 26 24 22 20 18 16 15 13 12 10 8 6 6 8 9 9 9 8 8 10 11 11 12 13 13 12 13 16 16 16 16 17 18 19 20 21 22 24 26 27 28 28 27 27 28 28 29 29 30 30 29 29 29 28 29 29 29 30 31 31 31 31 31 31 32
27 26 25 26 27 25 24 25 25 24 21 18 19 23 28 31 31 30 28 26 24 23 20 18 16 15 13 12 10 8 7 7 8 9 10 9 9 9 8 8 9 10 10 10 11 12 15 15 15 16 17 17 17 19 20 22 23 24 25 27 27 27 27 27 27 28 29 30 29 28 28 28 27 27 28 29 29 30 30 30 29 30 30 30 31
26 25 25 27 26 23 21 20 20 19 20 22 26 30 31 30 29 27 25 23 21 20 18 16 14 13 11 10 8 8 9 8 8 8 9 8 6 7 9 10 9 10 10 10 11 14 15 14 14 16 17 17 18 20 21 23 24 25 27 27 27 26 25 25 26 27 29 29 29 28 28 28 27 27 28 29 29 29 29 29 29 29 29 28 28
23 24 24 24 23 21 19 17 18 22 25 29 31 31 30 29 26 24 23 20 18 16 15 13 11 9 8 7 7 7 7 7 6 5 6 6 6 6 8 8 8 9 10 10 12 14 14 13 14 16 16 16 18 21 23 24 26 28 29 28 27 26 25 26 26 27 28 29 29 28 28 28 27 26 26 26 26 26 26 26 26 27 27 26 26
16 18 19 20 21 21 22 23 26 29 31 32 32 30 28 27 24 21 19 18 16 15 14 11 9 6 5 4 3 3 4 6 7 6 6 6 5 4 5 6 8 9 10 11 12 13 12 13 15 16 15 16 19 21 23 25 27 28 28 28 28 27 27 28 28 28 28 28 28 27 27 26 25 24 24 24 24 24 24 23 23 24 25 25 24
20 22 24 26 27 29 30 31 32 32 32 31 30 28 26 23 20 18 17 16 16 14 11 8 6 5 5 3 1 1 1 3 6 5 3 2 1 4 7 8 8 9 11 12 12 12 12 14 15 15 14 16 20 22 25 27 28 28 27 27 28 28 28 28 29 28 28 28 27 26 26 25 24 23 23 22 22 21 21 21 20 21 21 22 21
28 31 32 33 35 35 35 34 33 32 30 28 25 24 22 20 18 18 16 14 13 10 8 7 7 7 6 5 2 3 3 1 3 4 4 4 5 8 8 7 8 10 13 12 11 11 13 14 14 14 15 18 22 26 29 31 31 29 28 28 28 29 29 29 29 28 28 28 27 26 25 24 22 22 21 20 18 17 17 17 17 17 17 17 16
34 35 36 37 36 35 34 33 31 28 26 25 24 22 20 18 16 14 10 7 8 9 9 7 5 3 3 3 2 1 2 3 3 4 5 6 7 7 6 6 7 12 13 10 10 13 14 14 14 15 17 21 25 27 30 32 31 29 28 28 28 29 30 30 30 29 29 28 26 25 24 22 20 20 19 17 16 15 14 15 15 14 13 12 11
33 32 31 30 29 29 29 27 25 22 20 19 18 16 14 12 10 9 9 9 11 12 9 4 1 1 3 3 1 4 6 5 1 3 5 6 4 4 4 5 9 12 10 8 10 14 13 13 15 17 20 23 24 26 28 30 29 28 27 27 28 29 30 30 30 30 29 27 24 23 22 20 19 18 17 16 15 14 13 13 13 13 12 11 10
25 25 24 22 22 23 24 23 21 20 18 16 15 13 12 12 13 12 12 12 12 9 5 2 2 3 4 4 0 5 6 4 5 7 7 5 1 2 6 8 10 10 7 5 10 13 11 13 16 19 21 23 25 27 29 29 28 27 27 28 28 29 30 30 31 30 27 25 23 23 21 20 19 18 16 15 14 13 11 11 11 11 12 12 12
22 23 24 23 23 23 22 21 19 18 17 15 15 15 14 13 12 10 9 8 7 5 2 1 2 2 2 2 2 3 6 7 6 6 5 2 1 4 8 9 9 9 6 5 8 11 11 13 17 19 21 24 28 30 30 29 28 28 28 29 29 29 29 30 30 28 25 23 22 22 21 20 19 17 15 13 12 11 9 9 9 9 9 10 12
20 21 21 21 20 20 18 17 15 13 12 11 11 11 10 9 8 7 6 5 4 2 1 1 3 3 1 2 4 5 4 4 4 4 3 2 4 6 8 8 9 8 6 5 8 10 10 13 17 20 23 26 30 31 32 31 30 30 30 30 30 29 28 28 27 26 24 23 22 21 20 20 18 16 14 13 11 9 8 8 7 7 6 7 8
19 19 17 16 15 13 11 10 8 7 7 8 8 9 9 8 7 6 5 4 3 1 0 1 3 3 1 0 3 3 2 1 3 2 2 2 4 7 8 9 9 9 7 6 7 9 10 14 18 21 24 26 30 32 32 32 31 31 31 31 31 29 28 26 25 24 23 23 22 20 20 19 18 17 15 13 10 9 9 8 7 5 4 4 3
14 13 12 11 9 8 8 7 7 7 7 7 8 8 8 7 7 6 5 4 3 2 1 1 1 3 2 1 2 3 3 2 2 1 1 1 4 8 9 8 9 9 7 6 7 8 10 15 19 21 23 25 28 31 32 32 32 31 30 30 30 30 27 25 24 24 23 23 23 21 20 19 18 17 16 14 12 11 10 9 7 5 4 3 2
11 10 9 8 8 8 9 10 10 9 9 8 7 7 7 6 5 4 4 4 4 3 2 2 1 3 4 3 3 3 3 2 1 1 1 1 4 7 8 8 8 9 8 7 7 8 10 15 19 20 21 23 27 29 30 31 31 31 29 29 30 30 28 26 25 24 23 23 24 23 21 19 17 17 16 15 14 12 10 10 9 7 5 4 3
8 9 9 10 10 11 11 11 11 10 9 8 7 6 5 4 3 3 3 3 3 3 2 2 3 4 5 4 3 3 3 3 1 1 1 1 4 6 7 7 8 9 9 8 7 8 10 14 17 19 20 22 25 28 29 30 31 31 29 28 28 29 29 28 26 25 24 23 23 24 23 20 18 17 17 15 14 12 10 10 9 7 5 4 4
6 7 9 11 12 11 10 10 9 8 7 6 5 4 3 3 3 3 2 2 2 3 3 3 3 3 3 3 3 3 3 3 1 0 1 2 3 6 6 6 7 9 9 8 7 8 10 14 16 17 19 21 23 26 27 29 30 30 29 27 26 27 29 30 29 27 26 24 23 23 22 21 20 18 17 16 14 12 10 9 8 7 5 4 6
Wind_Direction
177 176 181 183 186 189 192 194 193 196 200 197 196 202 212 217 217 225 239 241 238 244 256 263 265 272 278 280 284 287 289 289 289 291 285 281 283 278 277 293 299 299 309 334 339 344 6 10 18 41 35 29 23 15 18 0 341 354 358 352 354 342 321 307 299 300 306 309 306 306 309 309 307 305 303 303 303 298 293 291 293 295 295 292 288
181 182 183 184 184 186 191 196 199 203 207 208 209 212 218 227 229 228 234 246 252 251 258 263 257 257 265 269 271 274 278 280 279 278 276 277 278 276 279 285 280 280 290 303 306 304 316 336 324 336 357 5 6 8 17 0 308 329 328 303 298 297 292 289 288 292 302 310 311 313 318 319 314 311 309 308 308 307 303 302 304 304 303 299 290
176 182 192 196 194 198 208 217 220 219 218 218 217 217 219 226 235 237 235 236 240 244 257 267 262 258 259 258 256 259 264 270 274 273 270 269 270 271 276 277 270 267 275 286 290 290 295 304 304 313 328 337 345 353 357 358 354 339 314 299 299 300 301 301 298 300 307 312 314 315 316 313 310 310 312 311 311 310 306 305 305 305 306 305 301
174 179 193 200 198 209 224 232 235 235 231 225 220 219 224 226 234 245 249 245 241 241 243 249 255 258 256 251 248 248 251 256 261 266 267 264 263 265 268 269 265 266 273 276 268 270 283 294 299 304 313 320 327 334 337 339 338 325 316 313 309 301 297 293 291 293 295 298 301 304 304 304 306 309 310 309 307 304 301 298 295 294 294 293 292
165 170 181 188 191 203 215 222 231 236 236 234 233 235 237 234 236 245 250 250 249 249 249 248 247 247 249 251 249 245 245 246 248 254 258 255 252 256 262 265 264 265 269 265 254 256 271 283 287 292 300 306 309 314 319 320 320 319 319 320 316 308 299 292 290 290 289 292 297 301 302 304 305 307 306 305 305 303 301 297 291 288 286 283 282
158 160 167 180 191 199 200 201 213 226 231 232 236 242 248 250 249 248 247 249 251 255 261 260 252 244 243 248 250 246 243 243 243 246 249 247 243 246 253 259 261 262 262 256 252 254 263 273 277 280 289 297 299 303 308 310 314 319 321 322 320 316 311 307 304 301 299 299 301 303 305 306 306 306 307 306 304 301 298 295 293 293 294 295 296
136 137 142 162 185 200 207 206 207 215 221 223 226 233 241 248 251 248 246 249 250 253 259 259 256 254 250 248 248 247 244 243 243 244 246 246 242 242 247 252 256 258 257 252 253 258 261 265 270 276 283 288 293 298 302 306 311 316 318 318 317 314 311 310 307 304 303 302 302 302 303 303 302 302 304 305 299 295 295 295 294 293 290 288 286
105 112 122 138 156 170 192 206 213 221 223 227 238 243 242 244 249 249 248 248 245 246 254 254 254 258 257 250 248 247 247 246 243 243 246 246 245 244 244 247 250 253 252 249 251 257 262 265 268 273 279 285 291 296 299 303 307 311 312 312 311 309 307 306 305 304 303 301 300 298 296 296 296 296 300 302 298 296 293 288 284 281 276 271 270
113 112 116 127 135 136 156 185 63 46 61 146 261 280 277 270 270 263 256 253 249 250 256 254 250 253 253 250 249 248 249 247 243 243 245 244 245 246 244 244 246 246 246 247 248 252 260 266 267 272 281 288 293 295 296 299 302 305 308 307 307 307 306 305 305 304 302 299 297 295 291 289 289 290 291 289 286 285 282 279 280 281 281 280 279
122 119 123 138 132 121 137 191 66 126 236 223 227 242 264 278 284 280 274 271 266 264 262 255 253 252 248 246 247 247 247 247 247 247 245 240 241 244 244 241 241 242 243 245 248 254 261 266 269 275 284 289 292 294 295 296 299 302 304 304 305 305 305 305 305 304 302 299 297 295 292 289 288 286 284 283 283 284 283 284 285 285 287 288 287
123 124 133 134 97 93 145 201 280 264 246 247 251 247 242 246 254 264 274 278 278 278 272 263 260 259 254 249 250 250 250 251 252 250 244 237 237 241 242 240 238 239 243 246 252 259 264 268 274 280 285 288 291 294 294 295 297 299 300 301 303 306 308 308 308 307 304 300 298 295 292 292 291 287 284 282 280 277 276 276 276 277 280 282 284
124 136 145 135 131 167 193 211 256 264 252 249 254 251 244 246 249 253 260 267 271 274 274 269 265 263 260 257 255 254 254 253 251 247 239 234 236 239 238 237 237 237 240 246 252 259 266 271 275 279 283 289 294 296 296 297 298 299 300 302 305 308 309 308 308 308 306 303 300 297 294 293 292 290 287 282 276 272 270 269 268 269 271 273 277
148 162 166 163 187 211 220 228 235 240 248 256 258 257 258 263 264 261 259 259 259 259 261 262 263 263 263 261 258 258 259 257 252 244 236 233 237 239 237 235 237 237 238 244 247 251 261 266 266 271 280 289 295 298 299 301 302 301 302 303 305 306 306 306 306 306 305 303 300 298 299 298 296 295 293 287 281 277 274 272 270 269 269 269 271
185 184 191 196 210 239 251 249 239 237 248 261 269 274 276 275 270 267 266 265 263 262 262 260 259 261 263 261 258 259 261 259 252 244 240 239 240 240 237 236 238 239 240 244 246 246 251 254 255 263 275 285 290 292 292 293 295 295 296 298 301 303 304 305 305 304 302 300 297 296 298 297 295 295 294 289 283 279 278 277 276 274 272 271 270
208 210 220 221 233 263 267 259 253 256 270 283 288 289 288 285 282 279 276 273 268 266 266 265 264 262 261 261 260 257 257 257 251 242 242 241 239 237 237 239 240 238 236 239 243 245 250 255 261 270 278 284 285 283 284 286 290 291 292 294 298 300 301 304 306 305 301 297 295 295 296 296 295 295 294 289 282 280 280 280 280 279 278 277 275
228 233 235 237 252 260 255 255 257 264 275 280 282 285 285 283 283 280 277 276 271 267 265 266 268 267 265 264 263 258 255 256 253 245 241 240 237 236 239 240 237 234 233 237 243 250 257 264 272 280 285 287 285 285 288 291 292 291 292 296 300 301 302 304 305 303 300 296 294 293 293 293 291 290 288 284 281 281 280 277 276 277 279 280 280
247 246 240 243 255 256 253 258 262 266 271 272 276 279 278 278 278 276 275 274 272 272 269 267 266 267 267 266 264 262 257 255 255 251 245 242 238 237 240 240 237 236 238 241 247 256 264 272 280 285 288 285 282 285 289 290 291 293 295 299 301 301 303 305 304 302 298 295 291 288 285 282 281 280 279 277 277 278 278 277 277 278 279 279 280
253 252 252 255 257 253 252 256 258 261 263 268 273 274 276 281 283 280 276 272 270 270 269 268 268 265 263 259 259 262 260 256 254 251 244 240 238 238 240 239 236 237 241 246 254 264 271 277 282 285 284 282 283 287 291 292 294 295 296 297 297 298 301 302 301 299 296 293 290 287 284 281 279 279 279 277 274 272 273 275 278 279 278 278 280
256 257 260 261 258 255 255 255 256 258 258 261 267 269 273 280 284 282 278 272 269 269 269 269 266 260 256 254 256 260 260 256 253 248 240 235 235 238 240 237 235 239 244 248 253 260 265 268 270 273 277 281 286 289 290 290 290 290 291 292 293 295 297 297 297 296 295 293 291 288 286 284 282 280 278 276 274 272 270 272 274 275 276 277 279
259 260 260 260 261 260 259 259 260 263 262 261 263 264 268 274 277 275 271 266 264 265 265 262 258 255 254 255 258 262 260 257 253 245 237 233 233 235 235 230 227 229 231 230 230 235 244 255 263 270 276 280 283 284 284 285 285 286 288 289 291 293 294 294 293 293 292 290 289 288 287 286 284 283 280 277 274 271 270 271 272 273 275 276 276
261 261 261 260 260 259 259 260 261 260 260 261 262 263 267 272 273 269 266 264 261 257 253 250 250 252 256 259 260 260 259 260 256 245 235 231 232 233 229 221 218 219 223 229 237 243 250 259 267 273 275 274 276 277 280 282 283 285 287 288 289 291 292 292 291 291 290 290 290 291 291 290 288 287 285 282 278 274 271 271 272 274 274 273 273
261 262 262 261 260 260 260 259 258 258 260 261 263 266 270 271 270 266 262 259 255 253 250 248 249 252 256 259 260 258 257 259 255 245 236 229 227 228 223 219 221 227 234 243 251 257 262 264 268 270 270 272 275 278 281 283 285 287 288 289 290 290 291 291 292 292 293 294 295 295 296 296 296 296 294 292 289 283 275 271 272 272 272 273 274
261 261 261 261 262 261 261 260 260 261 263 263 264 267 270 270 268 263 256 251 250 252 251 248 248 251 254 256 256 254 257 258 252 244 237 228 223 222 220 221 229 239 247 254 261 266 268 265 266 270 274 278 282 284 286 288 289 290 291 293 294 296 296 296 298 301 303 303 303 304 304 305 305 305 305 303 299 290 278 269 265 266 268 271 273
262 262 263 263 264 263 263 263 263 262 263 263 263 263 264 266 266 259 251 246 247 251 253 249 246 250 256 257 253 252 256 254 242 231 226 223 220 222 225 231 240 249 258 265 268 271 269 265 267 272 277 282 285 287 289 292 296 299 301 304 306 307 306 306 309 312 310 308 307 307 307 307 305 303 304 307 304 296 285 275 267 262 262 265 266
264 264 265 265 265 265 265 265 264 263 263 261 259 260 262 264 260 254 251 248 243 242 247 248 250 255 260 260 258 254 247 235 221 214 214 215 217 223 233 241 247 255 263 266 267 269 270 269 271 277 284 289 292 296 302 309 314 315 314 314 315 315 314 315 317 317 311 305 303 303 303 303 302 299 299 301 300 294 290 288 283 275 268 265 262
265 264 264 265 264 263 263 263 263 263 262 260 259 260 259 256 253 253 255 251 240 238 245 253 259 261 261 258 253 240 222 210 206 205 207 211 217 224 232 239 246 252 257 261 266 271 275 281 288 294 298 301 306 314 320 323 323 319 317 316 317 318 317 316 314 310 304 300 299 299 299 299 298 297 296 296 293 289 287 287 286 284 280 275 269
265 264 263 264 264 262 262 262 262 260 258 259 260 259 257 255 256 258 255 244 238 244 251 257 261 258 249 242 232 213 199 196 195 196 202 207 209 213 220 232 245 253 260 269 276 284 292 298 300 301 306 316 324 326 325 323 317 313 311 309 307 306 306 303 299 296 295 295 295 295 296 297 297 296 294 291 289 287 286 284 282 281 280 279 275
265 264 262 262 261 261 260 259 260 262 261 258 257 257 258 256 253 251 245 240 243 253 253 248 246 237 226 221 210 193 186 186 188 192 201 203 204 213 231 252 264 273 283 288 292 296 299 299 301 310 324 328 320 310 306 303 300 298 300 299 298 298 297 296 294 294 294 296 296 295 296 296 295 294 292 289 287 286 285 285 283 281 280 278 275
263 262 261 260 259 258 258 257 258 259 258 256 254 254 253 250 247 246 247 248 252 255 241 224 213 208 206 203 193 182 179 181 185 188 189 190 203 226 245 258 267 276 285 290 295 300 298 300 323 341 331 310 300 296 293 293 294 295 297 299 299 299 300 301 301 300 299 298 296 295 295 294 293 292 292 290 289 287 287 285 282 280 279 277 275
260 259 258 257 255 255 255 255 253 251 251 252 252 247 241 239 243 250 257 256 246 231 219 208 200 194 186 178 176 180 181 177 175 175 177 185 201 219 237 253 268 284 303 314 314 309 314 341 351 334 313 301 301 303 302 302 302 302 303 304 304 304 305 306 305 304 302 300 296 294 293 292 293 293 292 292 292 292 292 289 284 281 279 275 273
259 257 255 253 251 249 249 249 249 246 243 241 240 238 233 229 232 245 258 247 206 189 189 191 189 186 180 172 172 178 175 167 164 167 174 186 204 243 261 274 288 311 345 357 350 340 355 5 341 316 308 310 310 309 307 306 305 307 309 309 310 309 308 306 304 303 302 300 297 295 294 293 294 295 294 294 293 292 292 291 288 286 282 277 273
257 255 253 251 248 244 242 244 243 238 233 231 232 236 233 223 210 201 199 192 179 171 169 171 173 178 182 179 172 167 162 159 160 163 170 197 252 278 292 343 351 351 0 4 2 5 10 350 324 312 315 319 316 313 311 308 307 309 309 307 307 307 305 303 302 301 300 301 301 299 298 298 298 298 297 295 294 293 291 290 288 287 286 282 278
254 251 248 247 246 242 238 235 229 227 232 235 234 232 228 215 194 171 161 164 165 162 161 163 164 166 168 165 161 159 155 153 157 158 152 131 80 66 53 33 14 7 8 3 1 10 5 331 315 315 319 320 318 315 312 311 309 308 306 303 302 303 303 303 302 300 300 302 303 303 303 303 303 301 299 296 294 293 291 289 287 286 285 284 282
250 247 244 242 242 243 239 235 230 230 234 235 230 220 207 193 179 167 160 159 158 154 152 153 156 158 157 154 152 153 151 147 136 97 67 67 77 74 60 40 18 5 3 360 360 3 346 320 315 319 320 318 319 317 315 315 312 308 306 306 305 306 306 306 305 305 306 307 307 306 306 306 304 302 300 297 294 292 290 288 286 284 282 281 281
248 245 243 241 241 241 239 236 233 229 226 220 210 195 179 168 163 160 157 157 156 152 150 152 154 155 154 152 150 147 138 119 86 64 57 58 64 66 58 46 32 13 1 358 354 342 323 314 316 320 319 318 322 323 322 320 315 311 311 311 310 311 310 308 307 308 309 310 310 309 308 307 305 303 301 299 297 294 291 289 287 284 281 280 279
244 240 238 238 237 232 228 227 222 213 205 197 184 173 165 160 158 158 158 157 155 152 151 153 153 153 153 151 146 131 108 86 69 58 50 49 53 51 43 38 26 2 347 346 337 320 312 312 314 315 315 319 326 328 327 325 322 320 318 316 315 314 312 310 309 310 311 313 314 313 312 311 309 307 304 300 297 295 293 291 290 286 283 280 279
235 233 233 235 229 217 210 210 201 186 178 174 167 162 159 157 157 156 154 153 150 149 151 152 152 153 153 145 134 117 95 74 61 57 51 44 44 41 34 30 14 346 334 336 326 314 311 314 315 314 316 322 328 329 327 327 328 328 326 325 323 319 316 316 315 313 313 315 316 317 316 314 312 310 307 302 299 296 293 291 290 288 286 283 281
231 232 232 231 222 208 196 187 175 166 163 159 155 152 151 149 148 147 145 143 142 142 143 142 138 139 137 127 118 117 99 65 45 50 45 32 30 35 30 19 352 328 326 328 319 313 312 315 314 314 318 325 329 328 328 331 332 331 329 329 328 327 325 325 323 320 319 318 318 318 318 316 314 312 309 304 300 297 294 292 290 288 287 284 281
214 213 211 207 200 189 178 167 159 155 152 149 147 146 145 143 142 142 139 135 131 128 126 125 123 126 137 128 104 112 97 44 18 18 27 28 30 19 351 335 325 325 326 322 315 315 316 313 312 317 325 331 332 332 334 335 334 332 333 334 333 332 331 329 328 327 324 322 321 321 320 318 317 316 312 307 303 300 297 294 292 289 287 285 281
154 155 159 161 158 153 149 146 143 141 143 144 144 143 142 142 142 139 134 129 123 117 119 131 144 159 168 162 103 11 95 37 18 19 47 71 31 291 299 318 336 333 321 314 315 318 316 313 318 329 337 338 340 344 346 344 339 335 337 339 337 335 335 334 332 331 329 327 327 326 324 323 322 319 315 310 306 302 298 296 295 293 289 284 280
129 130 131 132 131 130 130 130 132 135 139 141 140 139 139 138 134 130 127 122 119 126 148 163 163 168 176 181 223 258 218 195 345 321 278 261 271 283 300 336 349 324 311 315 322 318 313 318 331 343 346 345 349 351 350 345 341 339 340 341 339 338 337 337 336 336 335 333 332 330 328 327 325 321 317 313 309 304 298 296 296 295 289 283 277
107 111 113 113 114 116 120 124 128 131 133 134 135 135 133 129 125 126 127 121 125 146 160 156 141 149 193 234 268 273 106 76 18 335 310 301 298 302 325 356 332 308 309 325 326 315 319 334 349 355 355 354 353 351 345 342 341 341 342 342 342 341 340 340 341 341 339 337 335 333 332 331 328 324 321 318 314 309 302 298 298 294 286 280 277
98 102 106 108 110 114 118 121 125 127 130 134 135 129 122 122 130 141 147 143 138 140 145 152 179 297 304 295 244 108 94 86 128 259 289 307 319 331 342 336 314 308 320 338 325 319 334 355 2 4 5 2 359 354 350 346 345 346 347 347 346 346 344 343 343 344 342 340 339 337 335 335 334 332 327 323 320 314 304 298 297 292 284 278 277
96 99 105 111 117 122 126 129 132 133 136 139 140 137 138 146 152 152 152 151 151 152 165 219 276 327 346 342 118 139 145 187 233 255 272 280 292 328 323 326 326 327 338 341 323 326 349 9 9 11 13 9 6 3 359 355 353 354 354 352 350 349 348 346 345 346 345 343 341 340 339 339 341 340 334 330 326 319 308 298 293 288 281 275 271
99 102 107 113 118 123 127 130 133 133 135 138 144 149 153 157 159 160 163 167 172 182 199 273 323 342 356 331 298 218 208 224 250 274 282 282 327 323 324 337 342 338 344 347 331 335 359 15 14 16 18 15 11 8 5 1 0 1 359 357 354 352 350 348 347 349 350 349 346 344 344 345 345 345 341 338 336 330 317 303 294 286 276 268 264
111 112 113 115 118 123 127 131 136 141 146 151 157 160 161 157 153 153 155 155 157 155 130 338 310 308 306 279 285 274 246 245 273 296 322 356 345 330 336 350 348 341 353 2 343 344 7 21 20 21 21 17 13 10 7 5 4 3 2 0 358 356 354 352 353 356 359 358 354 351 352 353 353 352 351 348 344 340 333 321 311 302 290 275 267
114 116 117 118 120 124 130 136 142 149 151 152 150 147 142 138 133 128 125 128 140 157 178 256 287 312 12 187 276 302 326 308 302 331 34 28 345 339 349 356 350 347 1 9 354 354 15 26 25 23 22 16 11 9 8 7 5 4 4 2 1 0 359 359 1 5 6 3 1 360 360 0 1 1 1 359 352 343 342 345 343 335 325 314 291
119 120 122 121 122 124 127 130 131 129 126 128 129 126 124 124 124 123 120 120 125 122 99 98 292 293 276 232 291 331 345 334 320 3 73 43 340 346 353 356 352 352 2 13 9 8 21 30 29 24 20 15 10 8 8 8 6 5 5 5 4 4 4 6 9 11 11 9 9 9 8 7 7 6 6 8 5 356 353 4 17 21 20 24 37
122 123 122 122 121 118 113 114 118 119 118 119 123 125 128 132 136 138 139 136 134 138 145 155 236 282 290 297 309 316 316 309 332 53 101 31 348 349 353 356 357 355 0 14 19 17 27 35 32 23 15 12 10 8 9 10 8 6 6 7 7 7 9 12 15 16 16 15 15 15 15 16 16 14 11 12 14 13 11 20 34 39 39 52 89
120 122 120 118 117 116 115 115 118 121 122 126 134 139 143 153 159 158 157 161 171 190 215 239 262 283 300 309 304 296 299 298 286 126 111 50 359 353 356 1 360 357 0 12 18 20 30 36 33 22 10 7 8 9 10 10 10 9 9 10 9 10 13 17 20 21 21 21 19 18 18 19 22 22 19 18 21 24 24 28 38 47 57 87 124
107 121 122 118 116 118 120 123 126 128 133 142 152 162 167 164 158 155 167 200 229 234 243 261 271 276 288 297 296 296 301 299 286 128 94 49 5 357 0 5 4 3 5 9 14 25 35 39 36 24 7 0 4 9 11 10 10 11 12 12 12 14 16 19 21 23 25 26 25 22 20 19 21 24 25 22 23 29 31 33 42 57 78 111 135
Height
1492 1494 1497 1499 1501 1503 1505 1507 1509 1510 1511 1512 1514 1515 1518 1520 1522 1523 1523 1522 1522 1522 1522 1522 1522 1522 1523 1523 1523 1524 1524 1524 1525 1525 1525 1525 1525 1525 1525 1526 1526 1526 1527 1527 1528 1528 1528 1528 1529 1529 1530 1530 1530 1530 1530 1530 1530 1530 1531 1531 1531 1531 1531 1530 1529 1527 1527 1527 1527 1526 1526 1525 1525 1524 1524 1523 1523 1523 1522 1522 1521 1521 1520 1520 1520
1494 1496 1497 1498 1499 1501 1503 1505 1507 1509 1510 1511 1512 1513 1516 1519 1521 1523 1523 1522 1522 1521 1521 1521 1522 1522 1522 1522 1522 1522 1523 1523 1524 1524 1524 1524 1524 1524 1524 1525 1525 1525 1525 1526 1526 1527 1527 1527 1528 1528 1528 1529 1529 1529 1529 1529 1530 1530 1531 1531 1531 1531 1530 1529 1528 1526 1525 1525 1524 1523 1523 1523 1522 1522 1522 1521 1520 1520 1519 1519 1518 1518 1518 1517 1517
1493 1495 1496 1498 1499 1500 1501 1503 1504 1506 1509 1510 1510 1511 1514 1516 1519 1521 1522 1522 1522 1521 1520 1520 1521 1522 1522 1522 1522 1522 1521 1521 1522 1522 1523 1523 1523 1523 1523 1524 1524 1524 1524 1525 1525 1525 1526 1526 1526 1526 1527 1527 1527 1528 1528 1528 1528 1528 1529 1529 1529 1529 1528 1528 1527 1525 1524 1522 1522 1522 1521 1521 1520 1519 1519 1518 1518 1517 1517 1516 1516 1516 1515 1515 1515
1491 1492 1494 1497 1499 1500 1501 1502 1503 1504 1506 1508 1508 1509 1511 1513 1516 1519 1520 1520 1520 1520 1520 1519 1519 1520 1520 1521 1522 1522 1521 1521 1521 1521 1522 1522 1522 1522 1522 1522 1523 1523 1523 1523 1523 1523 1524 1524 1525 1525 1525 1526 1526 1526 1526 1526 1526 1527 1527 1527 1527 1526 1526 1526 1525 1524 1523 1521 1521 1521 1520 1519 1518 1518 1517 1516 1516 1516 1515 1515 1515 1514 1514 1514 1513
1490 1491 1491 1494 1497 1498 1499 1501 1502 1503 1503 1504 1505 1506 1508 1509 1512 1516 1517 1517 1518 1519 1518 1517 1516 1516 1517 1519 1520 1521 1521 1520 1520 1520 1521 1521 1521 1521 1521 1521 1522 1521 1521 1522 1522 1522 1522 1523 1523 1523 1524 1524 1524 1525 1525 1525 1525 1525 1525 1525 1525 1524 1524 1524 1523 1522 1521 1520 1519 1519 1518 1518 1517 1516 1516 1515 1514 1514 1513 1513 1513 1512 1512 1511 1511
1491 1491 1491 1492 1495 1497 1497 1498 1500 1502 1501 1501 1502 1504 1505 1506 1508 1511 1512 1512 1514 1516 1516 1515 1514 1514 1515 1517 1519 1519 1520 1520 1519 1519 1519 1521 1521 1521 1520 1521 1521 1520 1520 1520 1521 1521 1521 1521 1522 1522 1522 1522 1522 1523 1523 1523 1523 1523 1523 1523 1522 1522 1522 1521 1521 1520 1519 1518 1517 1516 1516 1516 1515 1514 1514 1514 1513 1512 1511 1511 1510 1510 1509 1508 1508
1491 1491 1491 1491 1494 1496 1497 1498 1499 1500 1500 1499 1500 1501 1503 1505 1505 1506 1507 1508 1509 1511 1511 1511 1512 1513 1514 1516 1517 1518 1518 1519 1519 1518 1518 1519 1520 1519 1519 1520 1520 1519 1519 1519 1519 1519 1519 1520 1520 1520 1521 1521 1521 1521 1521 1521 1521 1521 1521 1520 1520 1520 1519 1519 1519 1518 1517 1517 1516 1515 1514 1514 1514 1513 1512 1512 1512 1511 1510 1509 1508 1508 1507 1506 1505
1491 1491 1491 1492 1494 1495 1497 1497 1498 1498 1499 1498 1499 1500 1502 1503 1504 1504 1505 1505 1506 1507 1507 1508 1509 1510 1512 1515 1516 1515 1516 1516 1517 1518 1518 1518 1518 1517 1517 1517 1517 1518 1517 1517 1517 1517 1517 1518 1518 1518 1519 1519 1519 1519 1519 1519 1519 1519 1519 1518 1518 1518 1517 1517 1516 1516 1515 1514 1514 1513 1512 1512 1512 1511 1511 1511 1510 1509 1509 1507 1505 1504 1504 1503 1502
1491 1492 1492 1493 1495 1496 1496 1497 1497 1497 1497 1498 1499 1499 1500 1501 1502 1503 1503 1504 1505 1505 1505 1505 1506 1506 1508 1510 1513 1513 1513 1512 1512 1514 1516 1517 1517 1515 1515 1515 1515 1516 1516 1515 1515 1515 1515 1516 1516 1516 1517 1517 1518 1518 1517 1517 1517 1517 1517 1516 1515 1515 1515 1514 1514 1513 1513 1512 1511 1511 1510 1509 1509 1509 1509 1509 1508 1507 1506 1505 1503 1501 1500 1499 1498
1491 1492 1493 1493 1494 1495 1496 1496 1496 1497 1497 1498 1499 1499 1500 1501 1501 1502 1502 1502 1503 1503 1503 1504 1504 1504 1505 1507 1509 1510 1510 1510 1509 1510 1512 1514 1515 1514 1513 1513 1514 1514 1514 1514 1514 1513 1513 1514 1514 1514 1515 1515 1516 1515 1515 1515 1515 1514 1514 1513 1513 1512 1512 1511 1511 1510 1510 1509 1508 1508 1507 1506 1506 1506 1506 1505 1505 1504 1503 1502 1500 1499 1497 1495 1494
1490 1491 1492 1493 1493 1494 1495 1495 1496 1496 1497 1498 1498 1499 1500 1500 1501 1501 1501 1501 1501 1501 1501 1501 1502 1502 1503 1504 1506 1506 1507 1507 1507 1507 1509 1511 1512 1511 1510 1511 1512 1512 1512 1512 1512 1512 1512 1512 1511 1512 1512 1513 1513 1513 1513 1513 1512 1512 1511 1510 1510 1510 1509 1508 1508 1507 1506 1505 1505 1504 1504 1502 1503 1503 1503 1502 1502 1501 1499 1498 1497 1496 1494 1492 1490
1490 1491 1491 1492 1493 1493 1494 1495 1495 1496 1496 1497 1498 1498 1498 1499 1499 1500 1500 1499 1499 1499 1499 1500 1500 1501 1501 1501 1502 1502 1502 1503 1504 1505 1506 1508 1509 1508 1507 1508 1509 1510 1510 1510 1510 1510 1510 1510 1510 1509 1509 1509 1510 1510 1510 1510 1509 1509 1508 1508 1507 1506 1506 1505 1504 1504 1503 1501 1500 1500 1500 1500 1499 1499 1499 1499 1497 1496 1495 1495 1494 1493 1491 1489 1488
1489 1490 1490 1491 1492 1492 1493 1493 1494 1495 1495 1496 1496 1496 1497 1497 1497 1497 1497 1498 1498 1498 1498 1498 1498 1499 1499 1499 1499 1498 1498 1499 1500 1502 1503 1505 1506 1505 1505 1505 1506 1507 1508 1508 1509 1509 1508 1509 1508 1508 1507 1507 1507 1507 1506 1506 1506 1505 1505 1504 1504 1503 1503 1502 1502 1501 1499 1498 1496 1496 1496 1496 1495 1495 1495 1495 1493 1492 1491 1490 1490 1489 1487 1486 1484
1489 1489 1489 1490 1491 1491 1492 1492 1493 1493 1494 1494 1494 1494 1495 1495 1495 1495 1495 1495 1496 1496 1496 1496 1496 1497 1496 1496 1496 1495 1495 1496 1498 1499 1500 1502 1503 1502 1502 1503 1503 1505 1506 1506 1507 1507 1507 1507 1507 1506 1506 1506 1505 1505 1504 1504 1503 1503 1502 1501 1500 1500 1499 1499 1498 1497 1496 1495 1493 1492 1492 1492 1491 1490 1491 1491 1489 1488 1487 1486 1485 1484 1483 1482 1480
1488 1488 1489 1489 1490 1490 1491 1491 1491 1492 1492 1492 1492 1492 1493 1492 1492 1493 1493 1493 1494 1494 1494 1494 1494 1494 1494 1494 1494 1493 1493 1494 1495 1497 1497 1499 1500 1500 1500 1501 1501 1503 1504 1504 1504 1505 1505 1505 1505 1505 1505 1504 1504 1503 1503 1502 1502 1500 1499 1498 1497 1497 1496 1495 1494 1494 1493 1492 1490 1489 1488 1488 1487 1486 1487 1487 1486 1485 1484 1483 1482 1480 1478 1476 1475
1487 1487 1487 1488 1488 1489 1489 1490 1490 1490 1490 1491 1491 1491 1491 1491 1491 1491 1491 1491 1492 1492 1492 1492 1492 1492 1491 1491 1491 1490 1490 1492 1493 1494 1495 1496 1497 1497 1498 1499 1499 1500 1501 1501 1502 1502 1503 1503 1503 1503 1503 1502 1501 1500 1500 1500 1499 1498 1496 1495 1494 1493 1492 1492 1491 1490 1489 1488 1487 1486 1485 1484 1484 1483 1483 1483 1482 1482 1481 1479 1478 1477 1475 1472 1470
1486 1486 1486 1486 1487 1487 1487 1488 1488 1488 1489 1489 1489 1489 1489 1489 1489 1489 1489 1490 1490 1489 1490 1489 1489 1489 1489 1489 1488 1487 1488 1489 1490 1491 1492 1493 1494 1494 1495 1496 1497 1498 1499 1499 1500 1501 1501 1501 1501 1500 1500 1499 1498 1498 1498 1497 1496 1495 1493 1492 1490 1489 1488 1488 1487 1486 1485 1484 1483 1483 1482 1481 1480 1479 1479 1479 1479 1479 1477 1474 1473 1474 1472 1468 1465
1484 1485 1485 1485 1485 1485 1486 1486 1486 1487 1487 1487 1487 1487 1487 1487 1487 1487 1487 1487 1487 1487 1487 1487 1487 1487 1486 1486 1485 1485 1486 1487 1487 1489 1490 1491 1491 1491 1492 1494 1495 1496 1497 1498 1498 1499 1499 1499 1499 1498 1497 1496 1496 1495 1495 1494 1493 1491 1490 1488 1487 1485 1484 1484 1482 1481 1480 1479 1479 1478 1477 1476 1476 1475 1475 1475 1475 1475 1473 1470 1469 1470 1468 1465 1463
1483 1483 1483 1484 1484 1484 1484 1484 1484 1484 1484 1485 1485 1485 1485 1485 1485 1485 1485 1485 1485 1485 1485 1485 1485 1484 1483 1483 1482 1483 1484 1485 1485 1486 1487 1488 1489 1490 1491 1492 1493 1494 1495 1496 1497 1497 1498 1497 1497 1496 1495 1494 1493 1492 1491 1491 1490 1489 1487 1485 1483 1482 1481 1480 1478 1476 1475 1474 1473 1472 1471 1471 1471 1470 1470 1470 1470 1470 1468 1466 1466 1466 1463 1461 1461
1480 1481 1481 1481 1481 1481 1481 1481 1481 1482 1482 1482 1482 1482 1482 1482 1482 1482 1482 1482 1483 1483 1483 1482 1481 1480 1480 1480 1480 1481 1482 1483 1483 1484 1485 1486 1487 1488 1489 1490 1491 1492 1493 1494 1495 1495 1496 1495 1494 1493 1493 1491 1491 1490 1489 1488 1487 1485 1484 1482 1480 1479 1477 1475 1473 1472 1470 1468 1467 1466 1465 1465 1465 1464 1464 1464 1464 1464 1464 1463 1463 1462 1460 1459 1459
1478 1478 1478 1479 1479 1479 1479 1479 1479 1479 1479 1480 1480 1480 1480 1480 1480 1480 1480 1480 1480 1480 1479 1478 1478 1477 1477 1478 1479 1480 1480 1481 1481 1482 1483 1484 1485 1486 1487 1488 1489 1490 1491 1492 1493 1493 1493 1492 1491 1490 1490 1489 1488 1487 1486 1485 1484 1482 1481 1479 1477 1475 1473 1470 1468 1467 1465 1463 1462 1460 1459 1459 1459 1459 1458 1458 1458 1459 1459 1458 1458 1458 1457 1456 1455
1475 1475 1475 1476 1476 1476 1476 1476 1476 1476 1476 1477 1476 1476 1476 1477 1477 1477 1477 1478 1477 1476 1475 1475 1475 1475 1475 1476 1477 1478 1478 1479 1479 1480 1481 1482 1483 1484 1485 1487 1488 1489 1490 1490 1491 1491 1491 1490 1488 1487 1487 1486 1485 1484 1483 1482 1480 1478 1477 1475 1473 1471 1469 1466 1464 1462 1461 1459 1457 1456 1455 1454 1454 1454 1454 1453 1453 1454 1454 1455 1455 1455 1454 1453 1452
1472 1472 1472 1473 1472 1473 1473 1472 1472 1473 1473 1473 1473 1473 1473 1473 1474 1474 1475 1475 1473 1472 1472 1473 1473 1473 1473 1474 1475 1476 1477 1477 1478 1479 1480 1481 1481 1482 1484 1486 1487 1487 1488 1488 1488 1488 1489 1488 1486 1484 1483 1483 1483 1481 1480 1478 1476 1474 1472 1471 1469 1467 1465 1463 1461 1459 1458 1456 1455 1453 1453 1452 1451 1451 1451 1451 1450 1451 1451 1451 1451 1451 1450 1450 1449
1469 1469 1469 1469 1469 1469 1469 1469 1469 1470 1470 1470 1470 1470 1470 1471 1471 1471 1472 1472 1471 1470 1469 1470 1471 1471 1471 1471 1473 1474 1475 1476 1477 1477 1478 1479 1480 1481 1483 1484 1485 1486 1486 1486 1486 1486 1486 1485 1483 1482 1481 1481 1480 1479 1477 1475 1473 1471 1469 1468 1466 1464 1462 1461 1459 1458 1456 1455 1454 1452 1451 1451 1450 1449 1448 1448 1448 1448 1447 1447 1447 1447 1446 1446 1445
1466 1465 1465 1465 1465 1466 1466 1466 1466 1466 1467 1467 1467 1467 1468 1468 1468 1468 1468 1469 1469 1469 1468 1468 1469 1469 1469 1470 1471 1473 1474 1474 1475 1476 1477 1478 1479 1481 1482 1483 1483 1484 1484 1483 1483 1483 1482 1482 1481 1480 1480 1479 1477 1475 1474 1472 1470 1469 1467 1466 1464 1462 1461 1459 1458 1457 1455 1454 1453 1452 1450 1450 1449 1448 1447 1446 1445 1445 1444 1443 1443 1443 1443 1442 1441
1462 1462 1462 1462 1462 1463 1463 1463 1463 1464 1464 1464 1464 1465 1465 1464 1464 1465 1466 1466 1467 1467 1466 1466 1467 1467 1468 1468 1470 1471 1472 1473 1474 1475 1476 1478 1479 1480 1480 1481 1481 1481 1481 1481 1480 1480 1479 1479 1478 1478 1476 1475 1474 1472 1471 1469 1468 1467 1466 1464 1463 1461 1460 1458 1457 1456 1455 1453 1452 1451 1449 1448 1447 1446 1445 1444 1443 1442 1441 1440 1439 1439 1439 1438 1437
1459 1459 1459 1459 1459 1459 1460 1460 1460 1460 1461 1461 1461 1462 1461 1460 1461 1462 1463 1464 1464 1464 1464 1464 1465 1466 1466 1467 1468 1470 1470 1472 1473 1475 1476 1477 1477 1478 1479 1479 1479 1479 1479 1478 1478 1478 1477 1476 1476 1475 1474 1473 1472 1471 1469 1468 1467 1466 1464 1463 1462 1460 1459 1458 1456 1455 1453 1452 1450 1449 1447 1446 1445 1444 1443 1441 1440 1439 1439 1438 1437 1436 1436 1435 1433
1455 1455 1455 1456 1456 1456 1456 1456 1457 1457 1457 1457 1458 1458 1457 1457 1458 1460 1461 1461 1462 1461 1461 1461 1462 1464 1464 1465 1467 1469 1470 1471 1473 1474 1475 1476 1476 1477 1477 1477 1477 1477 1477 1477 1476 1475 1475 1474 1474 1473 1472 1472 1471 1470 1468 1467 1465 1464 1463 1461 1460 1459 1457 1456 1454 1453 1451 1450 1448 1446 1445 1443 1442 1441 1440 1438 1437 1436 1436 1435 1434 1433 1432 1432 1430
1451 1451 1451 1452 1452 1453 1453 1453 1454 1454 1454 1453 1454 1455 1455 1455 1456 1457 1458 1459 1459 1459 1459 1460 1461 1462 1464 1465 1466 1468 1469 1471 1472 1473 1474 1475 1475 1476 1476 1476 1476 1476 1475 1475 1474 1474 1473 1472 1472 1471 1471 1470 1469 1467 1466 1464 1463 1462 1461 1459 1458 1456 1455 1453 1452 1450 1449 1447 1445 1443 1442 1440 1438 1437 1436 1434 1433 1433 1432 1431 1430 1429 1429 1428 1426
1447 1447 1447 1448 1448 1449 1449 1449 1450 1451 1450 1450 1451 1452 1452 1452 1453 1454 1455 1456 1457 1458 1459 1459 1460 1462 1463 1465 1467 1468 1470 1471 1472 1473 1474 1474 1475 1475 1475 1475 1475 1475 1475 1474 1473 1472 1471 1470 1470 1470 1469 1468 1466 1465 1464 1462 1461 1460 1458 1457 1455 1454 1452 1451 1449 1447 1446 1444 1442 1440 1438 1436 1435 1433 1432 1430 1428 1428 1427 1427 1426 1425 1424 1423 1422
1442 1442 1443 1444 1444 1445 1446 1446 1446 1447 1447 1447 1448 1449 1449 1450 1451 1452 1453 1455 1456 1457 1458 1459 1461 1463 1465 1466 1468 1469 1470 1471 1472 1473 1474 1474 1474 1475 1475 1474 1474 1474 1474 1473 1472 1471 1470 1469 1469 1469 1467 1466 1465 1463 1462 1460 1459 1457 1456 1454 1453 1451 1449 1448 1446 1445 1443 1441 1439 1437 1435 1433 1431 1429 1428 1426 1424 1423 1422 1422 1421 1421 1420 1419 1418
1438 1438 1439 1440 1440 1441 1442 1443 1443 1443 1443 1444 1445 1447 1448 1448 1449 1451 1453 1455 1456 1457 1459 1461 1463 1465 1466 1467 1468 1469 1471 1471 1472 1473 1473 1474 1474 1474 1474 1473 1473 1473 1472 1471 1470 1470 1469 1469 1468 1467 1465 1464 1463 1462 1460 1458 1457 1455 1453 1451 1450 1448 1447 1445 1444 1442 1440 1438 1436 1434 1432 1430 1428 1425 1424 1422 1420 1419 1418 1417 1417 1416 1415 1414 1413
1432 1433 1434 1436 1437 1438 1438 1439 1440 1440 1440 1441 1443 1445 1446 1447 1448 1450 1452 1455 1457 1459 1461 1463 1464 1466 1467 1468 1469 1470 1471 1472 1472 1473 1473 1474 1473 1473 1473 1472 1472 1471 1470 1470 1470 1469 1469 1468 1467 1465 1464 1463 1461 1460 1458 1456 1455 1453 1451 1449 1448 1446 1444 1442 1440 1438 1436 1434 1432 1430 1428 1426 1424 1422 1420 1418 1417 1415 1414 1413 1412 1412 1411 1410 1409
1427 1429 1430 1432 1433 1434 1434 1435 1437 1437 1438 1440 1441 1443 1444 1446 1447 1448 1451 1454 1457 1459 1461 1463 1465 1466 1467 1468 1469 1470 1471 1472 1473 1473 1473 1472 1472 1472 1472 1471 1471 1470 1470 1469 1469 1469 1468 1467 1465 1464 1463 1461 1459 1458 1456 1454 1453 1451 1449 1447 1445 1443 1441 1439 1437 1435 1433 1430 1428 1426 1424 1422 1420 1418 1416 1414 1413 1411 1410 1409 1408 1408 1407 1406 1404
1422 1424 1426 1428 1429 1430 1430 1432 1433 1434 1436 1438 1439 1441 1444 1446 1446 1448 1451 1453 1455 1458 1461 1463 1465 1466 1467 1468 1470 1471 1471 1472 1472 1472 1472 1472 1472 1472 1472 1471 1471 1470 1469 1469 1469 1468 1467 1465 1464 1462 1461 1459 1458 1456 1454 1453 1451 1449 1447 1444 1442 1439 1437 1435 1433 1431 1429 1427 1424 1422 1420 1418 1416 1414 1412 1410 1408 1407 1406 1405 1404 1403 1402 1402 1401
1417 1420 1421 1423 1424 1425 1427 1429 1429 1430 1433 1436 1438 1441 1444 1447 1447 1449 1452 1454 1456 1458 1461 1463 1465 1467 1468 1469 1470 1471 1471 1471 1471 1471 1471 1471 1471 1471 1471 1471 1471 1470 1470 1469 1469 1467 1466 1464 1463 1461 1460 1458 1457 1455 1453 1451 1449 1447 1444 1442 1439 1436 1434 1432 1430 1428 1425 1423 1421 1418 1416 1414 1412 1410 1408 1406 1404 1403 1401 1400 1399 1399 1398 1397 1397
1413 1415 1417 1419 1421 1423 1425 1427 1428 1430 1433 1436 1439 1441 1444 1447 1449 1451 1454 1456 1458 1459 1462 1464 1465 1467 1468 1469 1470 1470 1471 1471 1471 1471 1471 1471 1471 1471 1471 1471 1470 1470 1469 1469 1468 1466 1464 1463 1461 1460 1458 1457 1455 1453 1451 1449 1447 1444 1442 1439 1436 1434 1431 1429 1427 1424 1422 1419 1417 1414 1412 1410 1408 1406 1405 1402 1400 1399 1397 1396 1395 1394 1393 1393 1392
1409 1412 1414 1416 1419 1421 1424 1427 1429 1431 1434 1437 1440 1443 1446 1448 1451 1453 1455 1457 1459 1461 1463 1464 1466 1467 1468 1469 1469 1470 1470 1471 1471 1471 1471 1471 1471 1471 1470 1470 1470 1469 1468 1467 1466 1464 1463 1462 1460 1459 1457 1456 1454 1452 1450 1448 1445 1442 1439 1436 1433 1431 1428 1426 1423 1421 1418 1416 1413 1411 1408 1406 1404 1403 1401 1398 1396 1395 1393 1392 1391 1390 1389 1388 1388
1407 1409 1412 1414 1417 1420 1423 1426 1429 1432 1436 1440 1443 1445 1448 1451 1453 1455 1457 1458 1460 1462 1463 1464 1466 1467 1467 1468 1469 1469 1470 1470 1470 1471 1471 1471 1471 1471 1470 1470 1469 1468 1467 1466 1465 1463 1462 1461 1459 1457 1456 1454 1453 1450 1448 1446 1443 1440 1437 1434 1430 1428 1425 1422 1420 1417 1415 1412 1409 1407 1405 1402 1400 1399 1397 1395 1393 1391 1389 1388 1387 1386 1385 1384 1384
1407 1409 1411 1414 1417 1420 1424 1428 1431 1435 1439 1443 1445 1448 1451 1453 1455 1456 1458 1459 1461 1462 1463 1465 1465 1466 1467 1468 1468 1469 1470 1470 1470 1470 1470 1470 1470 1470 1469 1469 1468 1467 1466 1465 1464 1462 1461 1460 1458 1456 1455 1453 1451 1449 1446 1444 1441 1438 1435 1431 1428 1425 1422 1420 1417 1414 1411 1409 1406 1403 1401 1399 1397 1395 1393 1391 1389 1387 1386 1384 1383 1382 1381 1380 1380
1411 1413 1415 1417 1420 1424 1427 1431 1435 1439 1442 1446 1448 1451 1453 1455 1457 1458 1459 1460 1461 1463 1464 1465 1466 1466 1467 1468 1468 1469 1469 1470 1470 1469 1469 1469 1469 1469 1468 1468 1467 1466 1465 1464 1463 1462 1460 1458 1456 1455 1453 1452 1450 1447 1444 1442 1439 1435 1432 1429 1426 1423 1420 1417 1414 1411 1408 1405 1403 1400 1398 1395 1393 1391 1389 1387 1386 1384 1383 1381 1380 1379 1378 1378 1377
1419 1421 1423 1425 1428 1430 1433 1437 1440 1444 1447 1449 1451 1453 1455 1457 1458 1459 1460 1461 1462 1464 1464 1465 1466 1467 1467 1468 1468 1469 1469 1470 1469 1469 1468 1468 1468 1468 1468 1467 1466 1465 1464 1463 1462 1461 1459 1457 1456 1454 1452 1450 1448 1446 1443 1440 1437 1434 1431 1427 1424 1421 1417 1414 1411 1408 1405 1402 1400 1397 1395 1392 1390 1388 1386 1384 1383 1381 1380 1379 1378 1377 1376 1376 1376
1429 1430 1432 1434 1436 1438 1440 1443 1446 1448 1450 1452 1454 1456 1457 1459 1460 1461 1461 1462 1463 1463 1464 1464 1465 1466 1466 1467 1468 1468 1468 1469 1469 1468 1467 1467 1467 1467 1467 1466 1465 1464 1464 1463 1462 1460 1458 1457 1455 1453 1452 1450 1447 1445 1442 1439 1436 1432 1429 1426 1422 1419 1415 1412 1409 1406 1403 1400 1397 1395 1392 1390 1388 1386 1384 1382 1380 1379 1377 1376 1376 1375 1375 1375 1375
1436 1437 1438 1440 1441 1443 1445 1447 1449 1451 1453 1454 1456 1457 1458 1459 1460 1461 1461 1462 1463 1463 1464 1464 1465 1465 1466 1466 1467 1467 1467 1467 1467 1467 1467 1467 1466 1466 1466 1465 1464 1463 1463 1462 1461 1459 1458 1456 1455 1453 1451 1449 1447 1444 1442 1438 1435 1432 1428 1425 1421 1418 1414 1410 1407 1404 1401 1398 1395 1393 1391 1388 1386 1384 1382 1380 1379 1377 1376 1375 1374 1374 1374 1374 1374
1440 1441 1442 1443 1445 1447 1449 1450 1452 1453 1455 1456 1457 1458 1459 1459 1460 1461 1462 1462 1463 1463 1464 1464 1464 1465 1465 1465 1465 1466 1466 1466 1466 1466 1466 1466 1466 1465 1465 1464 1463 1463 1462 1461 1460 1459 1457 1456 1454 1452 1450 1448 1446 1444 1441 1438 1435 1431 1428 1424 1420 1417 1413 1410 1406 1403 1400 1397 1394 1392 1389 1387 1385 1383 1381 1379 1378 1376 1375 1374 1373 1373 1372 1372 1373
1444 1445 1446 1447 1449 1450 1451 1453 1454 1455 1456 1457 1458 1459 1460 1460 1461 1462 1462 1462 1463 1463 1463 1463 1464 1464 1464 1465 1465 1465 1465 1466 1466 1466 1466 1465 1465 1465 1464 1463 1463 1462 1461 1460 1460 1458 1457 1455 1454 1452 1450 1448 1445 1443 1440 1437 1434 1431 1427 1424 1420 1417 1413 1409 1406 1403 1399 1397 1394 1391 1389 1386 1384 1382 1380 1378 1377 1376 1374 1373 1373 1372 1371 1371 1371
1448 1449 1450 1451 1452 1453 1454 1455 1456 1456 1457 1458 1458 1459 1460 1461 1461 1462 1462 1462 1463 1463 1463 1463 1463 1463 1464 1464 1464 1464 1464 1465 1465 1465 1465 1465 1465 1464 1464 1463 1462 1461 1460 1459 1459 1458 1456 1455 1453 1451 1449 1447 1445 1443 1440 1437 1434 1431 1427 1424 1420 1416 1413 1409 1406 1403 1400 1397 1394 1391 1389 1386 1384 1382 1380 1378 1377 1375 1374 1373 1372 1371 1371 1371 1371
1451 1452 1453 1454 1455 1455 1456 1456 1457 1458 1458 1459 1459 1460 1460 1461 1461 1462 1462 1462 1462 1462 1462 1463 1463 1463 1463 1464 1463 1463 1463 1464 1464 1464 1465 1464 1464 1464 1463 1462 1462 1461 1460 1459 1458 1457 1456 1454 1452 1451 1450 1448 1446 1443 1441 1438 1435 1431 1428 1424 1421 1417 1413 1410 1406 1403 1400 1397 1394 1392 1389 1387 1384 1382 1380 1379 1377 1376 1374 1373 1372 1372 1371 1371 1371
1453 1454 1455 1455 1456 1456 1457 1458 1458 1459 1459 1460 1460 1460 1461 1461 1461 1461 1461 1461 1462 1462 1462 1462 1462 1462 1462 1463 1463 1463 1463 1463 1464 1464 1464 1464 1464 1463 1463 1462 1461 1461 1460 1459 1458 1457 1455 1454 1452 1451 1450 1449 1447 1444 1441 1438 1435 1432 1428 1425 1422 1418 1414 1411 1407 1403 1400 1398 1395 1392 1390 1388 1385 1383 1381 1380 1378 1376 1375 1374 1373 1373 1373 1373 1373
1455 1455 1456 1457 1457 1457 1458 1459 1459 1459 1460 1460 1460 1460 1461 1461 1461 1461 1461 1461 1461 1461 1461 1461 1462 1462 1462 1462 1463 1463 1463 1463 1463 1463 1463 1463 1463 1463 1462 1462 1461 1460 1459 1458 1457 1456 1455 1453 1452 1452 1451 1450 1447 1445 1442 1439 1436 1433 1430 1426 1423 1420 1416 1412 1408 1405 1402 1399 1396 1394 1391 1389 1387 1385 1383 1381 1380 1378 1377 1376 1375 1375 1375 1375 1375
1456 1457 1457 1457 1458 1458 1459 1459 1459 1460 1460 1460 1460 1460 1460 1460 1460 1460 1460 1461 1461 1461 1461 1461 1461 1461 1462 1462 1462 1463 1463 1463 1463 1463 1463 1463 1463 1462 1462 1461 1461 1460 1460 1458 1457 1456 1455 1454 1453 1452 1452 1450 1448 1446 1443 1440 1437 1434 1431 1428 1424 1421 1417 1414 1410 1407 1404 1400 1398 1395 1393 1391 1389 1387 1385 1384 1382 1381 1380 1379 1378 1378 1378 1378 1378